User: anonymous   Login
Location: Unspecified
(0.0000°N, 0.0000°E)
Time: 18:43:09
(UTC+00:00)
Language:

HODOYOSHI 1 - Orbit

View from above orbital plane
View from above orbital plane
View from above satellite
View from above satellite

Ground track
Ground track

The orbit data is extracted from the following two-line orbital elements,

1 40299U 14070B   18351.49335943  .00000437  00000-0  21428-4 0  9999
2 40299  97.3656  69.9276 0012256 334.1291  81.7735 15.23141465228386
Epoch (UTC): 17 December 2018 11:50:26
Eccentricity: 0.0012256
inclination: 97.3656°
perigee height: 488 km
apogee height: 505 km
right ascension of ascending node: 69.9276°
argument of perigee: 334.1291°
revolutions per day: 15.23141465
mean anomaly at epoch: 81.7735°
orbit number at epoch: 22838

The dashed part of the orbit path shows where the satellite is in the earth's shadow,  

DLR